Theta_e
299 299 300 299 295 296 295 296 293 295 297 304 308 308 306 309 312 314 313 316 316 316 316 314 314 314 313 313 313 313 311 310 309 308 307 307 306 306 305 305 304 304 303 303
297 299 299 297 298 297 297 298 300 300 300 308 311 307 307 309 309 307 309 308 308 309 309 309 309 309 309 308 308 309 307 305 305 305 304 303 303 302 302 302 301 300 300 299
293 298 298 295 298 299 300 301 302 298 304 310 307 304 303 304 307 304 305 305 304 303 303 303 304 305 304 304 305 304 303 302 301 301 300 300 299 299 299 298 298 297 298 298
295 296 287 298 302 303 301 300 302 305 308 309 301 299 301 305 303 302 301 299 300 299 299 299 300 300 301 300 301 300 300 299 298 297 297 297 297 296 296 296 295 296 296 297
293 292 294 297 300 301 301 298 303 303 302 301 302 301 296 300 301 299 298 296 293 294 295 295 296 297 298 298 297 297 296 296 295 294 294 294 294 294 294 294 294 294 295 297
293 290 287 299 303 305 304 296 305 304 303 303 306 301 295 297 297 297 296 297 296 296 296 295 294 295 295 294 293 293 292 293 293 293 292 292 292 293 294 294 293 295 296 295
292 293 294 300 303 305 295 298 306 305 305 305 302 303 297 297 295 296 295 295 295 295 293 292 292 293 291 291 290 291 291 292 291 291 291 292 292 293 293 293 290 293 294 297
294 292 290 304 303 298 303 306 305 304 302 298 297 296 295 295 295 294 293 293 293 292 291 291 291 291 290 289 290 291 290 290 290 290 290 291 291 292 292 290 291 292 293 295
297 297 299 301 303 304 306 302 300 299 299 298 295 294 294 293 293 292 291 291 291 290 290 290 290 290 288 288 289 287 287 288 289 289 290 290 291 289 289 290 289 291 291 291
297 295 295 297 300 303 304 301 300 299 298 297 294 294 292 291 291 290 290 289 289 289 288 288 288 288 288 287 287 287 287 288 289 289 289 289 290 290 289 289 288 288 288 288
291 293 295 295 298 299 299 299 298 298 298 296 295 293 292 291 290 289 288 289 289 288 287 287 288 288 288 288 287 287 288 287 287 288 288 287 288 288 288 290 289 287 288 289
294 297 299 294 297 299 297 296 296 295 294 295 294 291 291 290 289 289 288 289 288 287 287 286 287 287 287 288 287 287 286 286 287 287 287 288 287 287 289 289 289 289 289 288
297 297 296 296 298 299 296 296 296 295 294 292 292 292 291 290 289 287 288 288 287 285 286 286 286 286 287 288 288 288 287 286 286 286 286 287 286 286 285 288 289 288 287 287
297 297 294 296 293 296 296 295 295 294 293 292 291 292 290 288 288 288 287 287 287 286 285 285 285 286 287 288 287 288 288 288 287 287 287 287 286 286 286 286 287 287 288 287
297 298 296 295 295 294 294 293 291 290 290 290 291 289 288 287 287 287 287 287 286 285 285 285 285 286 287 287 286 286 287 287 288 288 287 288 288 286 286 285 286 285 287 287
296 295 295 294 293 293 293 292 290 289 290 289 289 289 288 288 287 287 286 285 284 283 284 284 285 286 286 288 286 287 287 286 286 287 287 287 287 285 286 284 284 285 285 285
293 292 293 292 292 292 292 292 291 290 290 289 289 289 288 288 287 287 286 286 285 284 284 284 284 286 286 288 288 287 287 287 285 287 286 286 285 285 286 285 285 284 285 286
299 297 297 295 294 293 292 292 291 290 289 289 289 288 287 287 286 286 286 285 285 284 284 284 285 285 285 287 289 287 287 286 287 286 286 284 284 285 285 285 284 284 284 285
298 297 296 296 295 294 293 291 291 290 290 289 288 287 287 287 287 287 287 284 283 282 283 285 284 284 285 286 288 288 287 286 286 285 284 284 284 284 285 285 285 283 284 285
296 296 296 295 295 293 291 291 290 289 289 289 288 288 287 286 286 285 286 283 282 283 283 285 285 286 287 287 286 288 286 285 284 283 283 283 283 283 283 283 284 284 285 284
295 295 294 294 293 293 292 291 290 289 289 289 288 288 287 286 285 286 285 285 283 283 284 284 286 287 287 286 287 287 285 284 283 282 282 282 282 283 283 283 283 283 283 284
295 295 294 294 293 292 292 292 291 289 288 288 288 288 287 286 284 283 284 283 285 283 286 287 287 284 286 284 287 286 285 284 283 282 281 281 281 281 282 282 282 282 282 283
296 296 295 294 293 293 293 292 291 290 289 288 288 288 287 286 286 285 284 284 287 284 287 287 283 282 283 287 286 285 284 283 283 282 282 281 281 281 281 281 281 282 282 282
296 296 295 295 294 293 292 293 292 292 291 290 289 289 288 287 285 285 286 284 283 284 285 284 283 282 283 285 284 284 284 283 282 281 282 281 282 282 281 281 281 281 282 282
296 295 294 294 293 293 294 294 293 292 291 290 290 290 290 290 290 286 287 287 283 285 285 282 282 282 285 284 284 283 283 282 281 281 281 281 281 280 281 281 280 280 281 281
296 295 295 295 295 295 294 294 293 293 292 291 290 291 290 290 289 289 288 286 286 284 285 284 283 284 283 283 282 282 283 283 282 281 281 280 280 280 280 280 280 280 280 280
297 294 295 295 296 296 295 295 294 293 293 293 292 292 291 291 289 288 286 287 286 285 284 284 283 281 282 282 282 282 282 282 280 280 280 280 280 280 280 280 280 280 280 281
Wind_Speed
5 3 3 7 17 18 17 14 9 11 10 7 8 5 4 7 10 12 13 14 13 12 11 10 10 10 9 8 8 7 7 7 6 6 6 6 7 7 8 9 10 12 13 14
5 4 4 4 9 11 10 8 6 4 4 5 12 10 10 12 15 14 14 14 16 15 14 13 10 9 9 9 9 7 7 7 6 6 7 8 8 10 10 11 13 13 14 14
5 1 7 6 8 10 6 5 5 7 7 16 14 14 11 11 17 15 15 15 15 14 12 12 11 9 10 8 8 7 7 7 7 8 9 10 11 12 12 13 13 14 14 13
5 4 6 4 1 6 5 5 3 8 15 15 16 14 14 12 14 16 15 16 14 12 12 11 9 10 8 8 7 7 7 7 8 10 12 12 12 12 12 12 12 12 13 12
5 3 2 1 5 7 6 4 4 11 17 19 18 17 13 12 13 14 15 14 12 10 10 9 10 8 7 6 7 7 8 10 10 11 12 12 12 12 12 11 12 11 11 12
5 5 7 5 7 3 3 4 11 15 19 23 17 9 6 8 12 14 13 12 11 10 8 9 9 7 6 8 8 9 10 11 11 11 11 12 12 12 10 10 11 10 11 11
5 3 2 2 6 5 7 0 15 19 20 15 7 7 17 13 12 11 10 11 9 8 8 8 7 7 9 9 11 11 11 11 10 10 11 10 10 10 10 10 10 11 11 11
3 3 5 3 5 7 6 14 16 16 14 18 21 20 16 14 12 10 10 9 7 7 7 7 9 10 10 10 10 9 10 10 10 10 9 8 10 9 10 10 10 10 10 9
2 3 4 3 4 1 9 17 13 17 17 24 21 18 15 13 11 9 8 7 7 8 10 10 11 10 9 10 11 10 10 10 10 10 9 9 9 10 9 9 8 9 8 9
7 5 6 6 9 12 14 17 15 18 19 18 22 16 14 11 9 8 8 9 8 9 10 10 10 10 10 10 10 10 11 11 10 10 10 9 8 7 7 8 8 8 8 8
6 7 12 9 10 16 20 21 21 18 17 17 18 14 13 11 9 9 9 8 8 9 8 9 9 9 10 10 10 10 10 9 9 8 9 9 8 7 8 8 8 9 9 9
6 12 8 12 12 18 21 19 19 20 17 13 14 15 12 11 9 8 8 7 8 8 7 7 8 8 9 9 9 9 8 7 7 7 7 7 7 7 6 8 12 11 11 9
10 14 17 17 15 16 22 18 16 17 16 17 13 13 12 11 9 9 7 7 7 6 6 6 6 7 9 9 8 8 7 8 7 7 6 7 7 7 8 7 7 6 9 11
22 28 19 11 13 16 19 19 18 17 14 14 14 13 12 10 9 8 8 6 6 6 5 6 7 8 9 9 8 7 7 10 5 5 6 7 8 8 8 9 9 10 9 11
15 17 18 20 18 16 16 16 17 15 13 13 11 11 10 10 8 8 7 7 6 6 6 6 7 7 8 8 8 8 6 5 7 6 6 8 7 8 8 9 9 9 10 12
20 22 19 19 18 15 14 13 15 13 12 11 11 10 10 9 8 7 6 5 5 6 6 5 7 8 8 8 7 7 7 10 8 6 7 8 8 8 9 9 9 9 9 10
23 15 17 16 15 14 12 11 12 12 12 11 11 10 9 8 7 7 6 6 6 6 6 6 7 6 8 9 7 6 6 7 6 6 7 7 8 9 9 8 10 9 10 10
15 17 15 18 16 14 13 12 12 12 11 11 10 9 8 7 7 6 6 6 5 5 7 7 5 6 7 9 8 7 6 7 7 8 7 8 8 8 9 10 10 11 10 11
17 18 16 15 14 14 14 13 12 12 12 11 10 9 8 7 6 6 6 7 7 6 7 6 9 8 7 10 9 6 8 8 8 8 8 9 9 9 10 10 11 11 11 12
17 17 17 16 14 15 13 11 12 11 9 9 10 9 8 7 7 7 7 9 6 4 5 5 6 7 8 9 10 7 8 8 9 9 8 8 9 9 10 12 12 11 12 11
18 17 17 15 14 13 13 12 12 11 9 8 8 8 9 8 7 6 6 5 6 4 4 7 7 6 6 7 7 8 8 8 8 8 8 9 9 10 10 11 11 11 12 12
14 15 15 15 13 13 11 11 11 10 10 10 9 8 8 8 7 7 6 4 2 4 4 5 6 8 6 6 7 8 7 8 7 7 8 9 9 10 10 11 11 11 12 12
13 14 14 13 13 13 12 11 11 11 10 10 9 8 7 5 4 3 4 3 3 5 4 6 7 8 7 6 7 7 8 8 8 7 8 8 9 9 10 11 10 11 11 12
14 13 13 12 14 13 12 10 10 9 10 9 9 9 8 6 5 3 4 3 3 5 6 6 7 8 6 6 6 6 7 7 7 7 8 10 8 9 9 10 10 11 12 13
13 13 13 13 12 9 11 11 10 9 10 9 8 7 6 3 3 5 4 4 4 4 6 7 7 7 6 6 6 6 6 6 7 8 8 8 9 9 9 9 10 11 11 12
13 9 9 11 9 9 9 9 8 8 8 8 7 6 5 5 6 6 5 5 5 5 5 5 6 6 6 6 6 6 6 7 8 8 8 8 9 9 10 11 11 11 11 11
9 9 9 8 7 8 9 9 8 8 8 7 7 7 7 6 6 6 5 5 5 4 4 4 5 6 5 5 6 6 6 6 8 8 8 8 8 9 10 10 10 10 11 11
Wind_Direction
48 113 163 161 183 186 195 214 201 250 219 212 166 114 82 117 136 137 130 130 127 119 113 107 97 95 95 85 76 78 78 68 52 38 20 5 1 347 334 321 317 312 308 306
69 104 142 121 161 180 190 199 236 257 152 138 121 107 101 107 108 105 102 97 91 87 81 78 79 80 81 72 64 63 67 57 29 2 345 342 340 329 319 313 310 310 306 308
134 132 145 122 173 172 152 170 202 180 137 140 119 96 85 104 105 102 96 90 83 77 80 71 65 61 60 59 59 50 40 22 359 339 328 329 326 316 315 313 312 312 313 314
115 170 185 61 305 177 129 106 146 118 140 126 106 86 64 80 97 104 104 95 84 82 75 67 56 59 52 39 41 29 12 345 336 332 325 321 315 315 319 318 316 319 316 315
153 188 69 289 178 167 188 148 141 130 127 126 126 98 54 55 75 89 89 87 86 74 75 62 49 27 36 24 24 10 353 339 334 331 316 316 318 325 322 319 322 318 304 303
172 177 196 192 169 166 182 232 161 152 147 146 159 139 125 105 98 92 86 82 83 78 68 52 36 13 14 20 11 1 345 337 329 317 317 324 326 319 318 313 304 307 306 301
154 150 221 263 142 170 192 96 156 154 152 148 136 99 127 119 101 93 90 83 83 77 64 43 22 12 24 15 11 351 334 322 320 328 329 319 317 317 316 314 310 302 308 307
129 140 202 113 146 199 101 126 136 140 131 112 115 119 124 118 107 94 85 79 73 80 68 44 29 22 20 14 352 336 333 332 338 333 321 320 323 316 321 316 308 311 314 314
232 80 358 340 313 23 146 134 127 122 129 128 124 124 123 116 107 94 85 75 61 53 48 37 28 22 10 2 354 345 338 335 328 327 328 322 323 323 318 318 311 315 321 325
168 53 62 83 93 101 120 113 116 120 128 125 123 124 118 113 105 93 72 61 51 49 46 38 26 21 11 355 345 334 335 337 335 334 331 329 326 320 319 313 317 319 319 314
91 117 103 72 102 117 110 111 112 111 115 116 118 116 119 112 98 83 75 66 53 48 45 36 21 15 4 355 342 337 334 335 330 329 335 331 322 317 311 310 319 313 315 320
154 155 95 120 123 124 112 112 111 114 109 104 110 112 109 99 88 80 73 67 67 61 45 27 16 8 360 350 346 338 335 340 337 331 335 333 334 324 308 296 308 308 316 326
119 104 97 111 110 109 111 111 110 110 112 113 107 111 108 106 91 86 78 63 66 64 44 24 13 4 358 346 342 332 333 337 342 341 336 340 338 341 336 336 325 328 343 341
117 115 113 122 113 108 105 107 106 102 103 107 112 109 106 106 109 95 83 76 81 74 48 30 15 6 354 342 340 335 325 324 315 321 343 345 352 349 342 346 351 354 357 355
102 80 109 116 111 110 111 117 109 109 113 111 114 117 117 119 108 97 88 79 76 66 43 18 3 7 345 347 350 351 343 348 339 345 351 354 358 354 356 352 355 356 354 355
105 112 119 117 121 121 121 120 117 125 123 123 124 122 114 107 106 101 95 84 73 50 32 5 1 349 334 345 354 354 353 3 358 357 2 4 8 0 3 357 359 359 0 355
115 123 126 125 131 136 133 131 130 130 130 129 125 126 128 120 109 101 89 73 75 52 26 6 351 349 337 359 12 4 358 3 353 6 11 4 1 4 7 2 10 5 0 355
133 136 139 140 142 137 132 133 133 134 129 125 127 129 127 116 108 102 79 77 72 53 27 348 350 360 345 1 17 15 10 8 8 11 8 7 3 4 13 4 14 3 359 358
129 129 132 133 135 135 136 135 131 123 128 133 134 119 107 95 103 106 85 66 52 34 13 332 2 7 8 11 5 23 18 14 15 15 9 5 6 9 9 9 7 3 2 0
121 125 128 128 131 134 129 123 123 123 125 126 121 123 116 100 110 101 85 68 43 7 347 353 7 20 18 25 16 31 25 20 16 16 13 7 13 9 10 8 4 3 5 2
128 129 129 128 127 126 125 130 128 125 126 132 135 126 115 98 82 78 77 69 28 15 14 22 22 14 32 14 19 34 25 21 18 15 9 8 8 11 10 9 8 7 3 2
130 130 129 129 128 125 128 130 128 131 126 119 117 119 115 107 98 84 68 53 17 6 32 36 26 20 18 351 33 28 24 20 22 13 11 9 11 8 9 8 4 2 2 0
135 134 132 133 135 134 137 137 136 133 124 117 114 107 97 94 99 119 107 34 43 37 45 42 20 17 348 31 32 26 21 18 14 13 15 6 9 9 5 5 360 358 358 356
134 138 134 133 135 139 140 140 131 126 119 116 116 123 127 128 117 100 106 115 85 67 57 36 29 15 350 27 28 26 21 18 17 12 8 8 8 5 3 359 358 357 354 355
137 137 138 144 148 146 141 143 136 140 142 136 135 130 126 127 115 145 145 111 89 67 61 44 29 17 22 26 27 24 23 19 15 10 9 8 6 2 359 357 358 354 351 351
144 148 155 160 155 155 154 161 162 163 160 157 152 151 135 127 123 134 123 112 93 76 61 45 32 29 32 27 25 23 20 20 15 15 10 5 3 2 358 356 355 353 352 349
144 144 149 155 160 163 166 174 169 170 179 169 163 167 161 154 139 138 132 117 101 90 75 59 47 39 33 23 20 22 18 19 23 6 9 4 2 360 358 354 352 352 351 349